Simultaneous Nadir Overpasses (SNOs) Predictions

Prediction of SNOs over PacNW region [( 10.00, 139.50) to ( 22.70, 165.60)] between AQUA and NPP Satellites:

Table of predicted SNOs over PacNW region for the next 30.0 days since TLE Epoch: 7/27/2015
Index Date (AQUA) Time (AQUA) AQUA Lat,Lon Date (NPP) Time (NPP) NPP Lat,Lon Distance(km) Time Diff (sec)
1 08/02/2015 02:40:46 16.86, 161.26 08/02/2015 02:38:53 16.61, 159.92 145.39 113
2 08/10/2015 03:28:37 11.94, 150.03 08/10/2015 03:28:05 11.59, 148.40 181.79 32
3 08/18/2015 02:40:03 16.01, 161.54 08/18/2015 02:38:24 15.74, 160.13 154.45 99




NCC Satellite Simultaneous Nadir Overpasses (SNOs) Prediction Service
